| time (UTC) | temp F | wind direction | speed knots | gust knots | rain 1hr in | rain 24hr in | rain mn in | humidity % | barometer mb |
| 20260905190600 | 72 | 82 | 6.1 | 12.2 | 0.00 | 0.24 | 0.24 | 60 | 984.4 |
| 20260905190103 | 72 | 176 | 7.8 | 12.2 | 0.00 | 0.24 | 0.24 | 60 | 984.5 |
| 20260905185556 | 72 | 107 | 7.8 | 11.3 | 0.00 | 0.24 | 0.24 | 60 | 984.6 |
| 20260905185055 | 71 | 98 | 5.2 | 9.6 | 0.00 | 0.24 | 0.24 | 62 | 984.6 |
| 20260905184559 | 71 | 103 | 2.6 | 7.8 | 0.00 | 0.24 | 0.24 | 63 | 984.7 |
| 20260905184052 | 70 | 148 | 3.5 | 7.8 | 0.00 | 0.24 | 0.24 | 63 | 984.8 |
| 20260905183552 | 69 | 101 | 2.6 | 7.8 | 0.00 | 0.24 | 0.24 | 64 | 984.8 |
| 20260905183051 | 69 | 103 | 2.6 | 7.0 | 0.00 | 0.24 | 0.24 | 65 | 984.8 |
| 20260905182549 | 69 | 132 | 2.6 | 7.8 | 0.00 | 0.24 | 0.24 | 65 | 984.9 |
| 20260905182048 | 68 | 99 | 1.7 | 7.8 | 0.00 | 0.24 | 0.24 | 66 | 985.0 |
| 20260905181548 | 68 | 86 | 0.9 | 7.8 | 0.00 | 0.24 | 0.24 | 67 | 984.9 |
| 20260905181046 | 67 | 145 | 2.6 | 7.8 | 0.00 | 0.24 | 0.24 | 67 | 985.0 |
| 20260905180547 | 67 | 121 | 1.7 | 7.8 | 0.00 | 0.24 | 0.24 | 67 | 984.9 |
| 20260905180052 | 67 | 74 | 2.6 | 7.8 | 0.00 | 0.24 | 0.24 | 67 | 985.0 |
| 20260905175543 | 66 | 67 | 1.7 | 6.1 | 0.00 | 0.24 | 0.24 | 67 | 985.1 |
| 20260905175041 | 66 | 55 | 1.7 | 6.1 | 0.00 | 0.24 | 0.24 | 68 | 985.0 |
| 20260905174541 | 66 | 107 | 1.7 | 5.2 | 0.00 | 0.24 | 0.24 | 68 | 985.0 |
| 20260905174043 | 66 | 63 | 1.7 | 7.8 | 0.00 | 0.24 | 0.24 | 68 | 985.1 |
| 20260905173541 | 65 | 76 | 2.6 | 7.8 | 0.00 | 0.24 | 0.24 | 67 | 985.2 |
| 20260905173101 | 65 | 75 | 0.9 | 7.8 | 0.00 | 0.24 | 0.24 | 67 | 985.2 |
| 20260905172541 | 66 | 99 | 2.6 | 7.0 | 0.00 | 0.24 | 0.24 | 67 | 985.0 |
| 20260905172042 | 66 | 32 | 0.9 | 7.0 | 0.00 | 0.24 | 0.24 | 67 | 984.9 |
| 20260905171541 | 66 | 107 | 0.9 | 5.2 | 0.00 | 0.24 | 0.24 | 67 | 985.0 |
| 20260905171042 | 66 | 60 | 1.7 | 7.0 | 0.00 | 0.24 | 0.24 | 67 | 985.2 |
| 20260905170541 | 66 | 57 | 3.5 | 7.0 | 0.00 | 0.24 | 0.24 | 67 | 985.3 |
| 20260905170044 | 67 | 103 | 2.6 | 5.2 | 0.00 | 0.24 | 0.24 | 67 | 985.5 |
| 20260905165540 | 67 | 123 | 0.9 | 4.3 | 0.00 | 0.24 | 0.24 | 67 | 985.6 |
| 20260905165039 | 67 | 104 | 0.9 | 4.3 | 0.00 | 0.24 | 0.24 | 67 | 985.4 |
| 20260905164539 | 67 | 140 | 0.9 | 5.2 | 0.00 | 0.24 | 0.24 | 68 | 985.4 |
| 20260905164040 | 67 | 67 | 1.7 | 5.2 | 0.00 | 0.24 | 0.24 | 67 | 985.2 |
| 20260905163540 | 67 | 49 | 0.9 | 4.3 | 0.00 | 0.24 | 0.24 | 68 | 985.1 |
| 20260905163038 | 67 | 151 | 0.0 | 5.2 | 0.00 | 0.24 | 0.24 | 68 | 985.0 |
| 20260905162537 | 67 | 60 | 1.7 | 5.2 | 0.00 | 0.24 | 0.24 | 68 | 985.1 |
| 20260905162036 | 67 | 42 | 0.0 | 3.5 | 0.00 | 0.24 | 0.24 | 68 | 985.2 |
| 20260905161546 | 66 | 42 | 0.0 | 3.5 | 0.00 | 0.24 | 0.24 | 68 | 985.3 |
| 20260905161035 | 66 | 96 | 0.0 | 1.7 | 0.00 | 0.24 | 0.24 | 68 | 985.1 |
| 20260905160536 | 66 | 88 | 0.0 | 1.7 | 0.00 | 0.24 | 0.24 | 68 | 985.0 |
| 20260905160034 | 66 | 76 | 0.0 | 1.7 | 0.00 | 0.24 | 0.24 | 68 | 984.8 |
| 20260905155535 | 66 | 82 | 0.0 | 2.6 | 0.00 | 0.24 | 0.24 | 68 | 984.5 |
| 20260905155033 | 66 | 67 | 0.0 | 2.6 | 0.00 | 0.24 | 0.24 | 68 | 984.9 |
| 20260905154533 | 66 | 65 | 0.0 | 2.6 | 0.01 | 0.24 | 0.24 | 68 | 984.8 |
| 20260905154033 | 66 | 107 | 0.0 | 7.8 | 0.01 | 0.24 | 0.24 | 68 | 984.9 |
| 20260905153532 | 66 | 105 | 1.7 | 7.8 | 0.01 | 0.24 | 0.24 | 68 | 984.9 |
| 20260905153033 | 65 | 171 | 3.5 | 7.8 | 0.01 | 0.24 | 0.24 | 68 | 984.5 |
| 20260905152533 | 66 | 153 | 2.6 | 9.6 | 0.01 | 0.24 | 0.24 | 68 | 984.3 |
| 20260905152033 | 66 | 125 | 5.2 | 10.4 | 0.02 | 0.24 | 0.24 | 68 | 984.3 |
| 20260905151532 | 66 | 128 | 5.2 | 26.9 | 0.03 | 0.24 | 0.24 | 70 | 984.7 |
| 20260905151030 | 66 | 146 | 5.2 | 26.9 | 0.06 | 0.24 | 0.24 | 70 | 984.2 |
| 20260905150534 | 65 | 120 | 2.6 | 13.0 | 0.08 | 0.24 | 0.24 | 70 | 984.8 |
| 20260905150030 | 65 | 22 | 1.7 | 13.9 | 0.11 | 0.24 | 0.24 | 70 | 985.0 |
| 20260905145530 | 64 | 345 | 5.2 | 10.4 | 0.13 | 0.24 | 0.24 | 70 | 984.4 |
| 20260905145025 | 63 | 52 | 3.5 | 18.2 | 0.14 | 0.23 | 0.23 | 70 | 983.4 |
| 20260905144525 | 63 | 88 | 7.0 | 21.7 | 0.15 | 0.23 | 0.23 | 70 | 981.9 |
| 20260905144023 | 62 | 34 | 8.7 | 21.7 | 0.16 | 0.23 | 0.23 | 70 | 984.0 |
| 20260905143521 | 61 | 92 | 10.4 | 16.5 | 0.17 | 0.23 | 0.23 | 70 | 984.4 |
| 20260905143021 | 61 | 360 | 10.4 | 16.5 | 0.18 | 0.23 | 0.23 | 70 | 985.0 |
| 20260905142520 | 61 | 89 | 8.7 | 13.9 | 0.18 | 0.23 | 0.23 | 70 | 985.9 |
| 20260905142020 | 61 | 123 | 4.3 | 17.4 | 0.18 | 0.22 | 0.22 | 70 | 985.9 |
| 20260905141520 | 61 | 82 | 8.7 | 17.4 | 0.17 | 0.21 | 0.21 | 70 | 985.6 |
| 20260905141022 | 61 | 106 | 5.2 | 7.8 | 0.14 | 0.18 | 0.18 | 70 | 987.4 |
| 20260905140523 | 61 | 145 | 4.3 | 7.0 | 0.11 | 0.15 | 0.15 | 70 | 988.1 |
| 20260905140018 | 60 | 132 | 1.7 | 6.1 | 0.09 | 0.13 | 0.13 | 70 | 988.4 |
| 20260905135519 | 60 | 132 | 0.9 | 5.2 | 0.07 | 0.10 | 0.10 | 70 | 988.7 |
| 20260905135019 | 60 | 209 | 0.0 | 5.2 | 0.06 | 0.09 | 0.09 | 70 | 988.6 |
| 20260905134519 | 60 | 180 | 0.9 | 5.2 | 0.05 | 0.08 | 0.08 | 70 | 988.6 |
| 20260905134017 | 60 | 233 | 1.7 | 5.2 | 0.04 | 0.07 | 0.07 | 70 | 988.4 |
| 20260905133517 | 60 | 184 | 0.0 | 4.3 | 0.03 | 0.06 | 0.06 | 70 | 988.6 |
| 20260905133024 | 60 | 196 | 1.7 | 4.3 | 0.03 | 0.05 | 0.05 | 70 | 988.3 |
| 20260905132517 | 60 | 180 | 0.0 | 4.3 | 0.03 | 0.05 | 0.05 | 70 | 988.5 |
| 20260905132015 | 60 | 159 | 1.7 | 4.3 | 0.02 | 0.04 | 0.04 | 70 | 988.1 |
| 20260905131523 | 60 | 139 | 0.9 | 3.5 | 0.04 | 0.04 | 0.04 | 70 | 987.8 |
| 20260905131017 | 60 | 22 | 0.0 | 2.6 | 0.04 | 0.04 | 0.04 | 70 | 987.6 |
| 20260905130515 | 60 | 22 | 0.9 | 3.5 | 0.04 | 0.04 | 0.04 | 70 | 987.2 |
| 20260905130014 | 60 | 22 | 0.9 | 3.5 | 0.04 | 0.04 | 0.04 | 70 | 987.1 |
| 20260905125517 | 60 | 22 | 0.0 | 3.5 | 0.03 | 0.03 | 0.03 | 70 | 987.4 |
| 20260905125014 | 60 | 360 | 1.7 | 3.5 | 0.03 | 0.03 | 0.03 | 70 | 987.6 |
| 20260905124513 | 60 | 255 | 0.0 | 0.0 | 0.03 | 0.03 | 0.03 | 70 | 987.8 |
| 20260905124012 | 59 | 255 | 0.0 | 0.0 | 0.03 | 0.03 | 0.03 | 70 | 987.9 |
| 20260905123513 | 59 | 255 | 0.0 | 0.0 | 0.03 | 0.03 | 0.03 | 70 | 987.8 |
| 20260905123013 | 59 | 255 | 0.0 | 1.7 | 0.02 | 0.02 | 0.02 | 70 | 987.8 |
| 20260905122512 | 59 | 255 | 0.0 | 2.6 | 0.02 | 0.02 | 0.02 | 70 | 987.7 |
| 20260905122012 | 59 | 255 | 0.9 | 1.7 | 0.02 | 0.02 | 0.02 | 70 | 987.8 |
| 20260905121512 | 59 | 252 | 0.0 | 2.6 | 0.00 | 0.00 | 0.00 | 70 | 987.8 |
| 20260905121013 | 59 | 252 | 0.9 | 2.6 | 0.00 | 0.00 | 0.00 | 70 | 988.0 |
| 20260905120513 | 59 | 252 | 0.9 | 1.7 | 0.00 | 0.00 | 0.00 | 70 | 987.7 |
| 20260905120009 | 59 | 252 | 0.0 | 0.0 | 0.00 | 0.00 | 0.00 | 70 | 987.4 |
| 20260905115509 | 59 | 252 | 0.0 | 0.9 | 0.00 | 0.00 | 0.00 | 70 | 987.2 |
| 20260905115011 | 59 | 252 | 0.0 | 0.9 | 0.00 | 0.00 | 0.00 | 70 | 987.2 |
| 20260905114509 | 58 | 252 | 0.0 | 2.6 | 0.00 | 0.00 | 0.00 | 70 | 987.2 |
| 20260905114008 | 58 | 252 | 0.0 | 4.3 | 0.00 | 0.00 | 0.00 | 70 | 987.1 |
| 20260905113508 | 58 | 254 | 2.6 | 4.3 | 0.00 | 0.00 | 0.00 | 70 | 987.2 |
| 20260905113011 | 59 | 255 | 1.7 | 3.5 | 0.00 | 0.00 | 0.00 | 70 | 987.1 |
| 20260905112506 | 58 | 250 | 1.7 | 3.5 | 0.00 | 0.00 | 0.00 | 70 | 987.0 |
| 20260905112005 | 58 | 360 | 0.0 | 0.9 | 0.00 | 0.00 | 0.00 | 70 | 986.5 |
| 20260905111506 | 58 | 360 | 0.0 | 0.0 | 0.00 | 0.00 | 0.00 | 70 | 986.2 |
| 20260905111004 | 58 | 360 | 0.0 | 0.9 | 0.00 | 0.00 | 0.00 | 70 | 985.9 |
| 20260905110503 | 58 | 360 | 0.0 | 1.7 | 0.00 | 0.00 | 0.00 | 70 | 985.8 |
| 20260905110004 | 58 | 124 | 0.0 | 3.5 | 0.00 | 0.00 | 0.00 | 70 | 985.7 |
| 20260905105507 | 58 | 124 | 1.7 | 3.5 | 0.00 | 0.00 | 0.00 | 70 | 985.6 |
| 20260905105002 | 58 | 106 | 0.0 | 2.6 | 0.00 | 0.00 | 0.00 | 70 | 985.6 |
| 20260905104502 | 58 | 109 | 0.0 | 1.7 | 0.00 | 0.00 | 0.00 | 70 | 985.7 |
| 20260905104004 | 58 | 109 | 0.0 | 2.6 | 0.00 | 0.00 | 0.00 | 70 | 985.6 |
| 20260905103505 | 58 | 109 | 0.0 | 3.5 | 0.00 | 0.00 | 0.00 | 70 | 985.3 |
| 20260905103006 | 58 | 119 | 0.9 | 3.5 | 0.00 | 0.00 | 0.00 | 70 | 985.3 |
| 20260905102501 | 58 | 129 | 0.9 | 2.6 | 0.00 | 0.00 | 0.00 | 70 | 985.3 |
| 20260905102004 | 58 | 127 | 0.0 | 2.6 | 0.00 | 0.00 | 0.00 | 70 | 985.3 |
| 20260905101502 | 58 | 360 | 0.9 | 2.6 | 0.00 | 0.00 | 0.00 | 70 | 985.1 |
| 20260905101002 | 58 | 117 | 0.0 | 2.6 | 0.00 | 0.00 | 0.00 | 70 | 985.0 |
| 20260905100501 | 58 | 103 | 0.0 | 2.6 | 0.00 | 0.00 | 0.00 | 69 | 985.1 |
| 20260905100002 | 58 | 102 | 0.0 | 3.5 | 0.00 | 0.00 | 0.00 | 70 | 985.1 |
| 20260905095501 | 58 | 123 | 1.7 | 5.2 | 0.00 | 0.00 | 0.00 | 70 | 985.2 |
| 20260905095100 | 58 | 360 | 1.7 | 3.5 | 0.00 | 0.00 | 0.00 | 70 | 985.2 |
| 20260905094600 | 58 | 120 | 1.7 | 2.6 | 0.00 | 0.00 | 0.00 | 70 | 985.1 |
| 20260905094059 | 58 | 107 | 0.9 | 2.6 | 0.00 | 0.00 | 0.00 | 70 | 984.9 |
| 20260905093559 | 58 | 117 | 0.9 | 3.5 | 0.00 | 0.00 | 0.00 | 70 | 985.0 |
| 20260905093059 | 58 | 102 | 1.7 | 3.5 | 0.00 | 0.00 | 0.00 | 70 | 985.1 |
| 20260905092602 | 58 | 123 | 0.0 | 1.7 | 0.00 | 0.00 | 0.00 | 70 | 984.9 |
| 20260905092058 | 58 | 123 | 0.0 | 1.7 | 0.00 | 0.00 | 0.00 | 70 | 985.0 |
| 20260905091608 | 58 | 123 | 0.0 | 1.7 | 0.00 | 0.00 | 0.00 | 70 | 985.0 |
| 20260905091100 | 58 | 123 | 0.0 | 2.6 | 0.00 | 0.00 | 0.00 | 69 | 985.1 |
| 20260905090559 | 58 | 123 | 0.9 | 2.6 | 0.00 | 0.00 | 0.00 | 69 | 985.2 |
| 20260905090056 | 58 | 123 | 0.9 | 2.6 | 0.00 | 0.00 | 0.00 | 69 | 985.5 |
| 20260905085556 | 58 | 123 | 0.9 | 2.6 | 0.00 | 0.00 | 0.00 | 69 | 985.5 |
| 20260905085055 | 58 | 98 | 0.0 | 2.6 | 0.00 | 0.00 | 0.00 | 69 | 985.5 |
| 20260905084558 | 58 | 98 | 0.0 | 2.6 | 0.00 | 0.00 | 0.00 | 69 | 985.5 |
| 20260905084054 | 58 | 97 | 0.0 | 2.6 | 0.00 | 0.00 | 0.00 | 69 | 985.6 |
| 20260905083553 | 58 | 110 | 0.0 | 1.7 | 0.00 | 0.00 | 0.00 | 69 | 985.7 |
| 20260905083107 | 58 | 106 | 0.0 | 1.7 | 0.00 | 0.00 | 0.00 | 69 | 985.8 |
| 20260905082551 | 58 | 105 | 0.0 | 2.6 | 0.00 | 0.00 | 0.00 | 69 | 985.9 |
| 20260905082051 | 58 | 105 | 0.9 | 2.6 | 0.00 | 0.00 | 0.00 | 69 | 986.0 |
| 20260905081550 | 59 | 110 | 0.9 | 2.6 | 0.00 | 0.00 | 0.00 | 69 | 986.0 |
| 20260905081049 | 59 | 113 | 0.9 | 2.6 | 0.00 | 0.00 | 0.00 | 69 | 986.1 |
| 20260905080548 | 59 | 110 | 1.7 | 3.5 | 0.00 | 0.00 | 0.00 | 69 | 986.1 |
| 20260905080048 | 59 | 100 | 0.9 | 3.5 | 0.00 | 0.00 | 0.00 | 68 | 986.1 |
| 20260905075547 | 59 | 117 | 0.9 | 2.6 | 0.00 | 0.00 | 0.00 | 68 | 985.9 |
| 20260905075046 | 60 | 117 | 0.9 | 2.6 | 0.00 | 0.00 | 0.00 | 68 | 986.1 |
| 20260905074548 | 60 | 125 | 0.9 | 3.5 | 0.00 | 0.00 | 0.00 | 68 | 985.9 |
| 20260905074045 | 60 | 138 | 1.7 | 3.5 | 0.00 | 0.00 | 0.00 | 69 | 986.0 |
| 20260905073545 | 60 | 139 | 0.9 | 3.5 | 0.00 | 0.00 | 0.00 | 68 | 986.0 |
| 20260905073045 | 60 | 143 | 1.7 | 3.5 | 0.00 | 0.00 | 0.00 | 69 | 986.1 |
| 20260905072549 | 60 | 129 | 0.9 | 3.5 | 0.00 | 0.00 | 0.00 | 69 | 986.1 |
| 20260905072044 | 60 | 123 | 1.7 | 3.5 | 0.00 | 0.00 | 0.00 | 69 | 986.0 |
| 20260905071544 | 60 | 126 | 0.9 | 2.6 | 0.00 | 0.00 | 0.00 | 68 | 985.9 |
| 20260905071044 | 60 | 89 | 0.0 | 0.9 | 0.00 | 0.00 | 0.00 | 68 | 986.0 |
| 20260905070544 | 60 | 89 | 0.0 | 3.5 | 0.00 | 0.00 | 0.00 | 68 | 986.0 |
| 20260905070042 | 60 | 89 | 0.9 | 3.5 | 0.00 | 0.00 | 0.00 | 68 | 985.9 |
| 20260905065541 | 61 | 121 | 0.9 | 2.6 | 0.00 | 0.00 | 0.00 | 68 | 985.9 |
| 20260905065040 | 61 | 123 | 0.0 | 3.5 | 0.00 | 0.00 | 0.00 | 68 | 985.9 |
| 20260905064541 | 61 | 124 | 0.9 | 3.5 | 0.00 | 0.00 | 0.00 | 68 | 985.9 |
| 20260905064041 | 61 | 105 | 0.9 | 1.7 | 0.00 | 0.00 | 0.00 | 68 | 986.0 |
| 20260905063540 | 61 | 109 | 0.0 | 2.6 | 0.00 | 0.00 | 0.00 | 68 | 986.0 |
| 20260905063040 | 61 | 111 | 0.0 | 2.6 | 0.00 | 0.00 | 0.00 | 68 | 986.0 |
| 20260905062540 | 61 | 360 | 0.0 | 2.6 | 0.00 | 0.00 | 0.00 | 68 | 985.9 |
| 20260905062040 | 61 | 360 | 0.0 | 1.7 | 0.00 | 0.00 | 0.00 | 68 | 985.9 |
| 20260905061542 | 61 | 115 | 0.0 | 0.0 | 0.00 | 0.00 | 0.00 | 68 | 985.9 |
| 20260905061037 | 61 | 115 | 0.0 | 0.0 | 0.00 | 0.00 | 0.00 | 68 | 985.9 |
| 20260905060538 | 61 | 115 | 0.0 | 0.0 | 0.00 | 0.00 | 0.00 | 68 | 985.9 |
| 20260905060044 | 61 | 115 | 0.0 | 0.9 | 0.00 | 0.00 | 0.00 | 67 | 985.9 |
| 20260905055537 | 61 | 115 | 0.0 | 0.9 | 0.00 | 0.00 | 0.00 | 67 | 986.0 |
| 20260905055036 | 61 | 115 | 0.0 | 0.9 | 0.00 | 0.00 | 0.00 | 67 | 985.9 |
| 20260905054602 | 61 | 115 | 0.0 | 0.0 | 0.00 | 0.00 | 0.00 | 67 | 986.0 |
| 20260905054036 | 61 | 115 | 0.0 | 0.0 | 0.00 | 0.00 | 0.00 | 67 | 986.0 |
| 20260905053539 | 61 | 115 | 0.0 | 0.9 | 0.00 | 0.00 | 0.00 | 67 | 986.0 |
| 20260905053035 | 61 | 115 | 0.0 | 0.9 | 0.00 | 0.00 | 0.00 | 67 | 986.0 |
| 20260905052533 | 62 | 115 | 0.0 | 0.9 | 0.00 | 0.00 | 0.00 | 67 | 986.0 |
| 20260905052033 | 62 | 115 | 0.0 | 0.9 | 0.00 | 0.00 | 0.00 | 67 | 986.1 |
| 20260905051534 | 62 | 115 | 0.0 | 0.0 | 0.00 | 0.00 | 0.00 | 67 | 986.2 |
| 20260905051031 | 62 | 115 | 0.0 | 0.0 | 0.00 | 0.00 | 0.00 | 67 | 986.1 |
| 20260905050534 | 62 | 115 | 0.0 | 0.0 | 0.00 | 0.00 | 0.00 | 67 | 985.9 |
| 20260905050031 | 63 | 115 | 0.0 | 0.0 | 0.00 | 0.00 | 0.00 | 67 | 985.8 |
| 20260905045533 | 63 | 115 | 0.0 | 0.0 | 0.00 | 0.00 | 0.00 | 67 | 985.7 |
| 20260905045029 | 63 | 115 | 0.0 | 0.0 | 0.00 | 0.00 | 0.00 | 67 | 985.7 |
| 20260905044530 | 63 | 115 | 0.0 | 0.0 | 0.00 | 0.00 | 0.00 | 67 | 985.8 |
| 20260905044028 | 63 | 115 | 0.0 | 0.9 | 0.00 | 0.00 | 0.00 | 67 | 985.7 |
| 20260905043528 | 63 | 115 | 0.0 | 0.9 | 0.00 | 0.00 | 0.00 | 67 | 985.8 |
| 20260905043029 | 63 | 115 | 0.0 | 0.0 | 0.00 | 0.00 | 0.00 | 67 | 985.8 |
| 20260905042528 | 63 | 115 | 0.0 | 0.0 | 0.00 | 0.00 | 0.00 | 67 | 985.7 |
| 20260905042028 | 63 | 115 | 0.0 | 0.0 | 0.00 | 0.00 | 0.00 | 67 | 985.6 |
| 20260905041528 | 63 | 115 | 0.0 | 0.0 | 0.00 | 0.00 | 0.00 | 67 | 985.7 |
| 20260905041027 | 63 | 115 | 0.0 | 0.0 | 0.00 | 0.00 | 0.00 | 66 | 985.6 |
| 20260905040531 | 63 | 115 | 0.0 | 0.0 | 0.00 | 0.00 | 0.00 | 66 | 985.6 |
| 20260905040027 | 63 | 115 | 0.0 | 0.0 | 0.00 | 0.00 | 0.00 | 66 | 985.5 |
| 20260905035528 | 63 | 115 | 0.0 | 0.0 | 0.00 | 0.00 | 0.00 | 66 | 985.5 |
| 20260905035028 | 63 | 115 | 0.0 | 0.0 | 0.00 | 0.00 | 0.00 | 65 | 985.5 |
| 20260905034527 | 63 | 115 | 0.0 | 0.0 | 0.00 | 0.00 | 0.00 | 65 | 985.6 |
| 20260905034027 | 64 | 115 | 0.0 | 0.0 | 0.00 | 0.00 | 0.00 | 64 | 985.6 |
| 20260905033528 | 64 | 115 | 0.0 | 0.0 | 0.00 | 0.00 | 0.00 | 65 | 985.6 |
| 20260905033028 | 64 | 115 | 0.0 | 0.0 | 0.00 | 0.00 | 0.00 | 64 | 985.6 |
| 20260905032526 | 64 | 115 | 0.0 | 0.0 | 0.00 | 0.00 | 0.00 | 64 | 985.5 |
| 20260905032026 | 64 | 115 | 0.0 | 0.0 | 0.00 | 0.00 | 0.00 | 64 | 985.7 |
| 20260905031526 | 65 | 115 | 0.0 | 0.0 | 0.00 | 0.00 | 0.00 | 64 | 985.6 |
| 20260905031025 | 65 | 115 | 0.0 | 0.0 | 0.00 | 0.00 | 0.00 | 64 | 985.6 |
| 20260905030526 | 65 | 115 | 0.0 | 0.0 | 0.00 | 0.00 | 0.00 | 64 | 985.6 |
| 20260905030033 | 65 | 115 | 0.0 | 0.0 | 0.00 | 0.00 | 0.00 | 64 | 985.5 |
| 20260905025527 | 65 | 115 | 0.0 | 0.0 | 0.00 | 0.00 | 0.00 | 63 | 985.4 |
| 20260905025026 | 65 | 115 | 0.0 | 0.9 | 0.00 | 0.00 | 0.00 | 64 | 985.6 |
| 20260905024525 | 65 | 115 | 0.0 | 0.9 | 0.00 | 0.00 | 0.00 | 64 | 985.5 |
| 20260905024024 | 65 | 115 | 0.0 | 0.9 | 0.00 | 0.00 | 0.00 | 63 | 985.5 |
| 20260905023525 | 66 | 115 | 0.0 | 0.0 | 0.00 | 0.00 | 0.00 | 63 | 985.4 |
| 20260905023024 | 66 | 115 | 0.0 | 0.0 | 0.00 | 0.00 | 0.00 | 62 | 985.4 |
| 20260905022524 | 66 | 115 | 0.0 | 0.0 | 0.00 | 0.00 | 0.00 | 62 | 985.4 |
| 20260905022026 | 67 | 115 | 0.0 | 0.0 | 0.00 | 0.00 | 0.00 | 61 | 985.4 |
| 20260905021525 | 67 | 115 | 0.0 | 0.0 | 0.00 | 0.00 | 0.00 | 61 | 985.3 |
| 20260905021024 | 67 | 115 | 0.0 | 0.0 | 0.00 | 0.00 | 0.00 | 61 | 985.0 |
| 20260905020527 | 67 | 115 | 0.0 | 1.7 | 0.00 | 0.00 | 0.00 | 61 | 985.2 |
| 20260905020023 | 67 | 115 | 0.0 | 1.7 | 0.00 | 0.00 | 0.00 | 61 | 985.2 |
| 20260905015523 | 68 | 115 | 0.0 | 0.9 | 0.00 | 0.00 | 0.00 | 61 | 985.2 |
| 20260905015024 | 68 | 115 | 0.0 | 0.0 | 0.00 | 0.00 | 0.00 | 60 | 985.0 |
| 20260905014523 | 68 | 115 | 0.0 | 0.0 | 0.00 | 0.00 | 0.00 | 60 | 984.9 |
| 20260905014022 | 68 | 115 | 0.0 | 0.0 | 0.00 | 0.00 | 0.00 | 59 | 984.9 |
| 20260905013524 | 69 | 115 | 0.0 | 0.0 | 0.00 | 0.00 | 0.00 | 58 | 984.9 |
| 20260905013022 | 69 | 115 | 0.0 | 0.0 | 0.00 | 0.00 | 0.00 | 57 | 984.8 |
| 20260905012524 | 70 | 115 | 0.0 | 0.0 | 0.00 | 0.00 | 0.00 | 57 | 984.8 |
| 20260905012022 | 70 | 115 | 0.0 | 0.0 | 0.00 | 0.00 | 0.00 | 58 | 984.8 |
| 20260905011522 | 71 | 115 | 0.0 | 0.0 | 0.00 | 0.00 | 0.00 | 58 | 984.8 |
| 20260905011022 | 71 | 115 | 0.0 | 0.0 | 0.00 | 0.00 | 0.00 | 57 | 984.6 |
| 20260905010521 | 72 | 115 | 0.0 | 0.9 | 0.00 | 0.00 | 0.00 | 57 | 984.6 |
| 20260905010021 | 73 | 115 | 0.0 | 0.9 | 0.00 | 0.00 | 0.00 | 57 | 984.6 |
| 20260905005521 | 73 | 115 | 0.0 | 0.0 | 0.00 | 0.00 | 0.00 | 56 | 984.6 |
| 20260905005021 | 74 | 115 | 0.0 | 0.0 | 0.00 | 0.00 | 0.00 | 56 | 984.5 |
| 20260905004521 | 74 | 115 | 0.0 | 0.9 | 0.00 | 0.00 | 0.00 | 56 | 984.3 |
| 20260905004021 | 74 | 115 | 0.0 | 0.9 | 0.00 | 0.00 | 0.00 | 56 | 984.3 |
| 20260905003521 | 74 | 115 | 0.0 | 0.9 | 0.00 | 0.00 | 0.00 | 56 | 984.4 |
| 20260905003023 | 75 | 360 | 0.0 | 2.6 | 0.00 | 0.00 | 0.00 | 56 | 984.5 |
| 20260905002522 | 75 | 360 | 0.9 | 5.2 | 0.00 | 0.00 | 0.00 | 55 | 984.6 |
| 20260905002020 | 75 | 123 | 0.9 | 3.5 | 0.00 | 0.00 | 0.00 | 55 | 984.6 |
| 20260905001521 | 76 | 87 | 0.9 | 4.3 | 0.00 | 0.00 | 0.00 | 55 | 984.6 |
| 20260905001021 | 76 | 76 | 1.7 | 4.3 | 0.00 | 0.00 | 0.00 | 55 | 984.7 |
| 20260905000526 | 76 | 130 | 0.9 | 5.2 | 0.00 | 0.00 | 0.00 | 55 | 984.7 |
| 20260905000031 | 76 | 114 | 1.7 | 5.2 | 0.00 | 0.00 | 0.00 | 55 | 984.8 |
| 20260904235521 | 76 | 124 | 2.6 | 5.2 | 0.00 | 0.00 | 0.00 | 55 | 984.9 |
| 20260904235019 | 76 | 144 | 1.7 | 3.5 | 0.00 | 0.00 | 0.00 | 55 | 984.9 |
| 20260904234522 | 76 | 117 | 1.7 | 7.0 | 0.00 | 0.00 | 0.00 | 54 | 984.8 |
| 20260904234019 | 77 | 128 | 2.6 | 8.7 | 0.00 | 0.00 | 0.00 | 54 | 984.9 |
| 20260904233519 | 77 | 123 | 3.5 | 8.7 | 0.00 | 0.00 | 0.00 | 54 | 984.9 |
| 20260904233020 | 77 | 360 | 2.6 | 7.0 | 0.00 | 0.00 | 0.00 | 54 | 984.8 |
| 20260904232518 | 77 | 132 | 3.5 | 7.0 | 0.00 | 0.00 | 0.00 | 54 | 984.8 |
| 20260904232020 | 77 | 137 | 2.6 | 7.0 | 0.00 | 0.00 | 0.00 | 53 | 984.8 |
| 20260904231520 | 77 | 66 | 2.6 | 7.0 | 0.00 | 0.00 | 0.00 | 53 | 984.7 |
| 20260904231018 | 77 | 138 | 1.7 | 7.8 | 0.00 | 0.00 | 0.00 | 54 | 984.7 |
| 20260904230518 | 77 | 107 | 4.3 | 7.8 | 0.00 | 0.00 | 0.00 | 53 | 984.8 |
| 20260904230019 | 77 | 101 | 4.3 | 7.0 | 0.00 | 0.00 | 0.00 | 54 | 984.8 |
| 20260904225519 | 77 | 140 | 3.5 | 10.4 | 0.00 | 0.00 | 0.00 | 54 | 984.8 |
| 20260904225017 | 78 | 91 | 5.2 | 10.4 | 0.00 | 0.00 | 0.00 | 53 | 984.7 |
| 20260904224520 | 78 | 144 | 4.3 | 9.6 | 0.00 | 0.00 | 0.00 | 53 | 984.9 |
| 20260904224017 | 78 | 86 | 4.3 | 10.4 | 0.00 | 0.00 | 0.00 | 53 | 984.8 |
| 20260904223516 | 78 | 360 | 6.1 | 10.4 | 0.00 | 0.00 | 0.00 | 52 | 984.8 |
| 20260904223019 | 79 | 92 | 3.5 | 7.0 | 0.00 | 0.00 | 0.00 | 52 | 984.6 |
| 20260904222519 | 79 | 96 | 2.6 | 5.2 | 0.00 | 0.00 | 0.00 | 49 | 984.8 |
| 20260904222016 | 79 | 79 | 0.9 | 7.8 | 0.00 | 0.00 | 0.00 | 50 | 984.7 |
| 20260904221516 | 79 | 115 | 0.9 | 7.8 | 0.00 | 0.00 | 0.00 | 49 | 984.7 |
| 20260904221017 | 79 | 181 | 1.7 | 4.3 | 0.00 | 0.00 | 0.00 | 48 | 984.7 |
| 20260904220517 | 79 | 86 | 1.7 | 5.2 | 0.00 | 0.00 | 0.00 | 49 | 984.7 |
| 20260904220017 | 79 | 360 | 2.6 | 6.1 | 0.00 | 0.00 | 0.00 | 49 | 984.7 |
| 20260904215517 | 79 | 88 | 0.9 | 5.2 | 0.00 | 0.00 | 0.00 | 50 | 984.7 |
| 20260904215015 | 79 | 88 | 1.7 | 6.1 | 0.00 | 0.00 | 0.00 | 51 | 984.6 |
| 20260904214515 | 79 | 86 | 0.9 | 7.8 | 0.00 | 0.00 | 0.00 | 50 | 984.6 |
| 20260904214015 | 79 | 88 | 4.3 | 7.8 | 0.00 | 0.00 | 0.00 | 49 | 984.5 |
| 20260904213516 | 79 | 116 | 2.6 | 6.1 | 0.00 | 0.00 | 0.00 | 49 | 984.5 |
| 20260904213015 | 79 | 136 | 3.5 | 7.0 | 0.00 | 0.00 | 0.00 | 50 | 984.4 |
| 20260904212515 | 79 | 122 | 3.5 | 7.0 | 0.00 | 0.00 | 0.00 | 49 | 984.4 |
| 20260904212014 | 80 | 107 | 0.9 | 8.7 | 0.00 | 0.00 | 0.00 | 50 | 984.3 |
| 20260904211515 | 79 | 140 | 0.9 | 8.7 | 0.00 | 0.00 | 0.00 | 50 | 984.4 |
| 20260904211013 | 79 | 174 | 2.6 | 7.0 | 0.00 | 0.00 | 0.00 | 50 | 984.3 |
| 20260904210512 | 79 | 89 | 0.9 | 6.1 | 0.00 | 0.00 | 0.00 | 49 | 984.3 |
| 20260904210016 | 79 | 107 | 3.5 | 7.0 | 0.00 | 0.00 | 0.00 | 49 | 984.3 |
| 20260904205512 | 79 | 98 | 2.6 | 7.0 | 0.00 | 0.00 | 0.00 | 49 | 984.6 |
| 20260904205011 | 79 | 34 | 0.9 | 6.1 | 0.00 | 0.00 | 0.00 | 49 | 984.5 |
| 20260904204511 | 79 | 123 | 1.7 | 7.0 | 0.00 | 0.00 | 0.00 | 51 | 984.5 |
| 20260904204014 | 79 | 132 | 2.6 | 7.0 | 0.00 | 0.00 | 0.00 | 49 | 984.6 |
| 20260904203511 | 78 | 109 | 2.6 | 5.2 | 0.00 | 0.00 | 0.00 | 50 | 984.6 |
| 20260904203010 | 78 | 156 | 0.9 | 7.0 | 0.00 | 0.00 | 0.00 | 50 | 984.7 |
| 20260904202509 | 78 | 100 | 2.6 | 7.0 | 0.00 | 0.00 | 0.00 | 51 | 984.6 |
| 20260904202012 | 78 | 84 | 3.5 | 7.0 | 0.00 | 0.00 | 0.00 | 50 | 984.6 |
| 20260904201509 | 78 | 100 | 1.7 | 7.0 | 0.00 | 0.00 | 0.00 | 50 | 984.7 |
| 20260904201009 | 78 | 110 | 1.7 | 6.1 | 0.00 | 0.00 | 0.00 | 50 | 984.8 |
| 20260904200508 | 78 | 86 | 0.9 | 6.1 | 0.00 | 0.00 | 0.00 | 50 | 984.7 |
| 20260904200008 | 78 | 121 | 1.7 | 6.1 | 0.00 | 0.00 | 0.00 | 50 | 984.8 |
| 20260904195511 | 78 | 103 | 2.6 | 5.2 | 0.00 | 0.01 | 0.00 | 44 | 984.8 |
| 20260904195006 | 77 | 360 | 1.7 | 6.1 | 0.00 | 0.01 | 0.00 | 44 | 984.9 |
| 20260904194505 | 77 | 137 | 2.6 | 6.1 | 0.00 | 0.01 | 0.00 | 44 | 984.9 |
| 20260904194006 | 77 | 100 | 0.9 | 6.1 | 0.00 | 0.01 | 0.00 | 45 | 984.9 |
| 20260904193505 | 77 | 112 | 1.7 | 7.0 | 0.00 | 0.01 | 0.00 | 45 | 984.9 |
| 20260904193005 | 77 | 54 | 2.6 | 7.0 | 0.00 | 0.01 | 0.00 | 46 | 985.0 |
| 20260904192506 | 77 | 78 | 1.7 | 7.0 | 0.00 | 0.01 | 0.00 | 45 | 985.0 |
| 20260904192004 | 77 | 76 | 2.6 | 6.1 | 0.00 | 0.01 | 0.00 | 46 | 985.0 |
| 20260904191503 | 76 | 151 | 0.9 | 6.1 | 0.00 | 0.01 | 0.00 | 45 | 985.1 |
| 20260904191004 | 76 | 170 | 0.9 | 6.1 | 0.00 | 0.01 | 0.00 | 46 | 985.2 |